Location: Unspecified
(39.0147°N, 0.0000°E)
Time: 14:57:21
(UTC+00:00)

CANX 3A (UNIBRITE) - Visible Passes

Search period start: 04 April 2026 00:00
Search period end: 14 April 2026 00:00
Orbit: 763 x 778 km, 98.4° (Epoch: 28 March)

Date Brightness Start Highest point End Pass type
(mag) Time Alt. Az. Time Alt. Az. Time Alt. Az.
4 Apr ? 04:16:25 10° SE 04:20:57 34° ENE 04:25:31 10° N visible
5 Apr ? 03:42:56 10° ESE 03:46:04 17° ENE 03:49:12 10° NNE visible
5 Apr ? 19:10:45 10° NNW 19:14:08 18° WNW 19:17:30 10° WSW visible
6 Apr ? 04:44:25 10° SSE 04:49:27 65° ENE 04:54:29 10° N visible
7 Apr ? 04:10:02 10° SE 04:14:24 30° ENE 04:18:46 10° N visible
8 Apr ? 03:36:51 10° E 03:39:33 15° ENE 03:42:14 10° NNE visible
8 Apr ? 19:03:53 10° NNW 19:07:36 21° WNW 19:11:17 10° WSW visible
9 Apr ? 04:37:55 10° SSE 04:42:51 56° ENE 04:47:49 10° N visible
10 Apr ? 04:03:41 10° ESE 04:07:51 26° ENE 04:12:00 10° NNE visible
10 Apr ? 19:34:21 10° NW 19:35:50 11° WNW 19:37:20 10° WNW visible
11 Apr ? 03:30:55 10° E 03:33:01 13° ENE 03:35:08 10° NE visible
11 Apr ? 18:57:03 10° NNW 19:01:02 24° WNW 19:05:02 10° WSW visible
12 Apr ? 04:31:25 10° SE 04:36:16 48° ENE 04:41:09 10° N visible
13 Apr ? 03:57:23 10° ESE 04:01:18 23° ENE 04:05:12 10° NNE visible
13 Apr ? 19:27:03 10° NW 19:29:19 13° WNW 19:31:35 10° W visible
